Location: Cutler
(25.6150°N, 80.3110°W)
Time: 16:23:14
(UTC-05:00)

Vanguard 1 - Visible Passes

Search period start: 25 February 2018 00:00
Search period end: 07 March 2018 00:00
Orbit: 650 x 3833 km, 34.2° (Epoch: 24 February)

Date Brightness Start Highest point End Pass type
(mag) Time Alt. Az. Time Alt. Az. Time Alt. Az.
25 Feb 11.0 20:34:52 10° W 20:38:58 27° SW 20:38:58 27° SW visible
26 Feb 9.9 18:32:38 10° WNW 18:40:30 78° NNE 18:45:23 10° ESE visible
26 Feb 11.8 20:57:04 10° WSW 20:59:09 15° SW 20:59:09 15° SW visible
27 Feb 10.0 18:54:04 10° WNW 19:01:29 74° SSW 19:06:14 10° SE visible
28 Feb 10.6 19:15:35 10° WNW 19:22:18 47° SW 19:26:50 10° SE visible
01 Mar 11.3 19:37:21 10° W 19:42:57 29° SW 19:47:03 10° SSE visible
02 Mar 11.8 19:59:42 10° W 20:03:30 17° SW 20:06:36 10° S visible
04 Mar 14.4 06:12:03 10° SSE 06:20:50 14° SE 06:30:02 10° ESE visible
05 Mar 11.9 18:38:55 10° WNW 18:46:23 32° SW 18:51:14 10° SSE visible
06 Mar 12.1 19:01:21 10° W 19:06:49 20° SW 19:10:50 10° S visible
